Location: Göttingen
(51.5413°N, 9.9158°E)
Time: 17:33:45
(UTC+02:00)

Tiros 1 despin weight - Pass Details

Date: 30 May 2022
Orbit: 591 x 639 km, 48.2° (Epoch: 04 July)

Event Time Altitude Azimuth Distance (km) Brightness Sun altitude
Rises 22:15:24 0° 275° (W) 2,860 ? -6.4°
Reaches altitude 10° 22:17:49 10° 268° (W) 1,947 ? -6.7°
Maximum altitude 22:21:57 38° 200° (SSW) 920 ? -7.1°
Drops below altitude 10° 22:26:01 10° 133° (SE) 1,921 ? -7.5°
Enters shadow 22:26:09 - 132° (SE) 1,973 ? -7.5°
